Flag for U.S.A. Weather past 2 weeks in Syracuse, New York, U.S.A.

Now
90 °F

Scattered clouds.


Feels Like: 91 °F
Forecast: 64 / 91 °F
Wind: 9 mph from Southwest

Location: Syracuse Hancock International Airport

Current Time: Jul 29, 2015 at 6:49:34 PM

Latest Report: Jul 29, 2015 at 5:54 PM


Visibility: 10 mi

Pressure: 29.86 "Hg

Humidity: 41%

Dew point: 63 °F

Location of SyracuseLocation

Historic Weather in Syracuse — Graph

°F

Syracuse temperature yesterday

Maximum temperature yesterday: 89 °F (at 2:54 PM)
Minimum temperature yesterday: 65 °F (at 4:54 AM)
Average temperature yesterday: 77 °F

Past Weeks' High & Low Weather Summary

 TemperatureHumidityPressure
High91 °F (Jul 29, 1:54 PM)100% (Jul 17, 4:54 AM)30.11 "Hg (Jul 17, 4:54 AM)
Low51 °F (Jul 16, 4:54 AM)29% (Jul 23, 6:54 PM)29.50 "Hg (Jul 14, 5:54 PM)
Average72 °F71%29.87 "Hg
* Reported Jul 14 4:54 PM — Jul 29 4:54 PM, Syracuse, Weather by CustomWeather, © 2015

Note: Actual official high and low records may vary slightly from our data, if they occured in-between our weather recording intervals... More about our weather records

Advertising

Syracuse weather history for previous 24 hours

 ConditionsComfort  
Time TempWeatherWind HumidityBarometerVisibility
4:54 PM
Wed, Jul 29
90 °FScattered clouds.8 mph42%29.87 "Hg10 mi
3:54 PM91 °FScattered clouds.12 mph41%29.90 "Hg10 mi
2:54 PM91 °FBroken clouds.13 mph41%29.91 "Hg10 mi
1:54 PM91 °FBroken clouds.7 mph44%29.92 "Hg10 mi
12:54 PM88 °FBroken clouds.3 mph52%29.94 "Hg10 mi
11:54 AM87 °FMore clouds than sun.3 mph55%29.96 "Hg10 mi
10:54 AM83 °FMore clouds than sun.No wind59%29.97 "Hg10 mi
9:54 AM78 °FMore clouds than sun.No wind64%29.97 "Hg10 mi
8:54 AM75 °FMore clouds than sun.3 mph66%29.98 "Hg10 mi
7:54 AM69 °FMore clouds than sun.3 mph79%29.98 "Hg10 mi
6:54 AM65 °FBroken clouds.5 mph91%29.97 "Hg10 mi
5:54 AM64 °FPassing clouds.3 mph87%29.97 "Hg10 mi
4:54 AM64 °FPassing clouds.5 mph87%29.97 "Hg10 mi
3:54 AM66 °FPassing clouds.5 mph81%29.96 "Hg10 mi
2:54 AM66 °FPassing clouds.5 mph84%29.96 "Hg10 mi
1:54 AM68 °FPassing clouds.3 mph82%29.98 "Hg10 mi
12:54 AM68 °FPassing clouds.5 mph82%29.97 "Hg10 mi
11:54 PM
Tue, Jul 28
70 °FPassing clouds.No wind79%29.98 "Hg10 mi
10:54 PM73 °FPassing clouds.3 mph74%29.98 "Hg10 mi
9:54 PM73 °FPassing clouds.No wind76%29.97 "Hg10 mi
8:54 PM76 °FScattered clouds.No wind72%29.96 "Hg10 mi
7:54 PM80 °FScattered clouds.5 mph58%29.96 "Hg10 mi
6:54 PM84 °FScattered clouds.8 mph48%29.96 "Hg10 mi
Weather by CustomWeather, © 2015

See weather overviewHow to use our weather pages